Rappy
kostenlose Werkstattsuche
SERVICE HOTLINE: 06301 600-2999 (1)

Volvo - Günstige KFZ-Reparaturen

Für Volvo eine preiswerte Autowerkstatt in der Nähe finden. Nutzen Sie für Ihr Fahrzeug der Marke Volvo unsere Kfz Werkstattsuche und finden schnell eine günstige Autowerkstatt. Nutzen Sie rechts unser Werkstattanfragenformular, um Ihre Preisanfrage zu stellen.

Hier sehen Sie letzten Autoreparatur-Anfragen für Volvo

Datum Autohersteller Kfz-Modell Kfz-Typ Werkstatt Ort Werkstattleistung
19.01.2019 09:11:24 Volvo V 50 Kombi 2.0 D Bamberg Zahnriemen / Steuerkette
19.01.2019 06:13:39 Volvo S 60 Lim Basis Halle (Saale) Zylinderkopfdichtung
17.01.2019 10:04:15 Volvo V 70 Kombi 2.4 T / 2.5 T Stuttgart Sonstige
17.01.2019 05:51:31 Volvo S 40 Lim 1.9 D Bad Grund (Harz)I Zahnriemen / Steuerkette
16.01.2019 19:32:51 Volvo C 30 D2 Edition R-Design Willich Inspektion
16.01.2019 19:26:53 Volvo C 30 D2 Edition R-Design Willich Zahnriemen / Steuerkette
16.01.2019 11:39:21 Volvo V 70 Kombi 2.4 T / 2.5 T Hamburg Fahrwerk & Stoßdämpfer
15.01.2019 19:14:16 Volvo V 50 Kombi 2.0 D Summum Eisenberg Radlager
15.01.2019 13:34:29 Volvo V 50 Kombi 2.0 D Summum Eisenberg Radlager
15.01.2019 06:18:49 Volvo V 60 Kombi Kinetic Blieskastel Zahnriemen / Steuerkette
14.01.2019 18:27:17 Volvo Serie 740 Lim GL Kombi Bramsche Bremsen
14.01.2019 12:31:25 Volvo S 60 Lim 2.4 T / 2.5 T München Zylinderkopfdichtung
14.01.2019 11:56:37 Volvo V 70 Kombi D5 Momentum (2004->) Schwerin Zahnriemen / Steuerkette
13.01.2019 19:06:52 Volvo V 70 Kombi 2.5 T AWD Ehringshausen Sonstige
13.01.2019 10:58:02 Volvo XC 60 Kinetic 2WD Hamburg Bremsen
11.01.2019 08:41:03 Volvo V 50 Kombi 1.6 D Momentum Grevenbroich Sonstige
10.01.2019 15:08:08 Volvo V 70 Kombi 2.4 / 2.5 (103kW / 106kW) Osterode Am Harz Kupplung
09.01.2019 21:35:12 Volvo C 70 Cabriolet 2.0 T Stocksee Zahnriemen / Steuerkette
09.01.2019 17:42:00 Volvo V 40 Kombi 1.8 16V Wolfsburg Sonstige
08.01.2019 13:33:33 Volvo V 40 Momentum Berlin Inspektion
08.01.2019 07:14:33 Volvo V 50 Kombi 1.8 Düsseldorf Zahnriemen / Steuerkette
07.01.2019 16:18:04 Volvo S 40 Lim 1.8 16V Büchenbach Sonstige
07.01.2019 06:51:16 Volvo V 70 Kombi R AWD Villingen-Schwenningen Bremsen
06.01.2019 09:58:56 Volvo C 70 Cabriolet 2.4 Momentum (103kW) Grevenbroich Zahnriemen / Steuerkette
05.01.2019 11:38:05 Volvo V 70 Kombi 2.4 / 2.5 (103kW / 106kW) Halle (Saale) Klima / Heizung / Kühler
05.01.2019 11:27:43 Volvo V 70 Kombi 2.4 / 2.5 (103kW / 106kW) Bernburg (Saale) Klima / Heizung / Kühler
05.01.2019 11:22:50 Volvo V 70 Kombi 2.4 / 2.5 (103kW / 106kW) Bernburg (Saale) Sonstige
04.01.2019 16:01:41 Volvo V 70 Kombi T5 Hamburg Radlager
04.01.2019 00:28:53 Volvo V 40 Kombi 2.0 T Remshalden Inspektion
Sie suchen für Volvo eine günstige Werkstatt? Anfrage jetzt stellen
04.01.2019 00:27:00 Volvo V 40 Kombi 2.0 T Remshalden Sonstige
04.01.2019 00:25:06 Volvo V 40 Kombi 2.0 T Remshalden Fahrwerk & Stoßdämpfer
04.01.2019 00:24:20 Volvo V 40 Kombi 2.0 T Remshalden Radlager
04.01.2019 00:20:47 Volvo V 40 Kombi 2.0 T Remshalden Sonstige
03.01.2019 17:23:16 Volvo Serie 850 2.5 20V Kombi Aachen Smart Repair
01.01.2019 14:29:05 Volvo V 70 Kombi Momentum Bedburg Anhängerkupplung
28.12.2018 19:51:32 Volvo V 40 Kombi 1.9 D Krummesse Kupplung
28.12.2018 19:39:35 Volvo V 40 Kombi 1.9 D Krummesse Kupplung
28.12.2018 01:12:06 Volvo XC 90 D5 Köln Kupplung
28.12.2018 01:11:14 Volvo XC 90 D5 Köln Kupplung
24.12.2018 13:54:29 Volvo V 40 Kombi 1.8 16V Brandenburg An Der Havel Radlager
24.12.2018 13:49:32 Volvo V 40 Kombi 1.8 Classic Limited Edition Brandenburg An Der Havel Radlager
20.12.2018 15:37:16 Volvo V 50 Kombi 1.8 F Pfungstadt Klima / Heizung / Kühler
19.12.2018 22:54:47 Volvo XC 60 Kinetic 2WD Berlin Inspektion
19.12.2018 13:33:03 Volvo S 80 Lim 2.0 T Business Heidelberg Zahnriemen / Steuerkette
18.12.2018 18:04:51 Volvo C 70 Coupe 2.0 T Schorndorf Zahnriemen / Steuerkette
18.12.2018 11:16:25 Volvo S 40 Lim 1.8 16V Doberlug-Kirchhain Kupplung
18.12.2018 08:34:40 Volvo XC 60 Kinetic 2WD Berlin Sonstige
17.12.2018 19:02:41 Volvo C 30 2.4i Witzenhausen Zahnriemen / Steuerkette
15.12.2018 10:04:46 Volvo V 50 Kombi 2.0 D Momentum Bad Salzuflen Kupplung
14.12.2018 18:28:32 Volvo XC 60 Momentum 2WD Maintal Smart Repair
14.12.2018 17:38:02 Volvo XC 60 Momentum 2WD Maintal Achsvermessung
14.12.2018 09:37:57 Volvo V 70 Kombi D5 Edition Comfort (2006->) Laboe Zahnriemen / Steuerkette
12.12.2018 18:42:53 Volvo XC 60 Kinetic 2WD Berlin Bremsen
12.12.2018 17:51:03 Volvo C 30 1.6 D Drive Engelskirchen Bremsen
11.12.2018 00:44:37 Volvo Serie 460 1.8i Brandenburg An Der Havel Kupplung
10.12.2018 22:44:58 Volvo V 60 Kombi Momentum Meckenheim Inspektion
08.12.2018 11:59:48 Volvo V 50 Kombi 2.4 Momentum Fitzbek Sonstige
07.12.2018 14:25:58 Volvo V 70 Kombi 2.4 D Momentum (120kW)(2005->) Kaufbeuren Kupplung
07.12.2018 09:28:58 Volvo Serie 940 Lim GL / 940 TD Kombi Cölbe Zahnriemen / Steuerkette
Sie suchen für Volvo eine günstige Werkstatt? Anfrage jetzt stellen
06.12.2018 16:18:55 Volvo V 70 Kombi 2.4 / 2.5 (103kW / 106kW) Halle (Saale) Achsvermessung
05.12.2018 15:18:30 Volvo S 60 Lim 2.4 (103kW) Olching Inspektion
03.12.2018 08:08:41 Volvo S 80 Lim D5 Kinetic Wallersdorf Radlager
02.12.2018 23:54:03 Volvo V 50 Kombi 1.6 D Momentum Karlsruhe Sonstige
02.12.2018 21:31:35 Volvo V 50 Kombi 2.0 D Perleberg Bremsen
02.12.2018 21:26:58 Volvo V 50 Kombi 2.0 D Perleberg Bremsen
29.11.2018 11:03:22 Volvo Serie 240 Kombi 240 GL Family Edition Celle Zylinderkopfdichtung
29.11.2018 10:52:22 Volvo Serie 240 Kombi 240 GL Family Edition Celle Zylinderkopfdichtung
25.11.2018 13:15:04 Volvo V 70 Kombi D5 Sailauf Kupplung
22.11.2018 22:27:48 Volvo XC 90 D5 Momentum (136kW)(7 Sitze) Elze Zahnriemen / Steuerkette
22.11.2018 13:31:48 Volvo V 70 Kombi 2.4 (103kW) Hamburg Fahrwerk & Stoßdämpfer
22.11.2018 08:17:33 Volvo Serie 440 GL Bad Klosterlausnitz Zahnriemen / Steuerkette
20.11.2018 15:57:46 Volvo C 30 2.0 D Momentum Berlin Radlager
19.11.2018 22:46:21 Volvo V 70 Kombi 2.4 (103kW) Ahlen Fahrwerk & Stoßdämpfer
19.11.2018 19:02:50 Volvo XC 60 Kinetic 2WD Leipzig Inspektion
19.11.2018 12:31:22 Volvo V 40 Kombi 2.0 T Berlin Zahnriemen / Steuerkette
19.11.2018 12:20:28 Volvo C 70 Cabriolet D5 Summum Bocholt Bremsen
19.11.2018 12:14:49 Volvo C 70 Cabriolet D5 Summum Bocholt Bremsen
17.11.2018 09:48:53 Volvo S 40 Lim T5 Momentum Tettau Bremsen
17.11.2018 09:44:31 Volvo S 40 Lim T5 Momentum Tettau Fahrwerk & Stoßdämpfer
15.11.2018 18:45:06 Volvo Serie 850 GLE Kombi Dortmund Zylinderkopfdichtung
15.11.2018 17:14:20 Volvo V 50 Kombi 1.6 Stockelsdorf Zahnriemen / Steuerkette
15.11.2018 14:44:56 Volvo C 30 2.0 D Dülmen Auspuff
14.11.2018 11:38:41 Volvo C 70 Cabriolet T5 Summum Bechtheim Lichtmaschine
13.11.2018 14:33:30 Volvo C 70 Cabriolet T5 Summum Bechtheim Sonstige
13.11.2018 11:27:08 Volvo C 70 Cabriolet T5 Summum Bechtheim Zahnriemen / Steuerkette
11.11.2018 14:53:25 Volvo XC 60 Kinetic 2WD Erfurt Bremsen
11.11.2018 12:56:31 Volvo V 40 Kombi 2.0 T Leipzig Auspuff
11.11.2018 12:28:59 Volvo V 50 Kombi 2.0 D Momentum Bad Salzuflen Kupplung
08.11.2018 15:23:41 Volvo XC 90 D5 Summum (136kW) Dülmen Kupplung
Sie suchen für Volvo eine günstige Werkstatt? Anfrage jetzt stellen
08.11.2018 11:12:36 Volvo XC 60 Linje Inscription 2WD Berlin Bremsen
07.11.2018 10:23:59 Volvo V 70 Kombi 2.4 / 2.5 (121kW / 125kW) Diez Kupplung
06.11.2018 16:03:33 Volvo V 40 Kombi 2.0 T Grünheide (Mark) Inspektion
06.11.2018 10:32:52 Volvo XC 40 Basis AWD Berlin Radwechsel 4 Räder
05.11.2018 17:09:16 Volvo XC 40 Basis AWD Berlin Bremsen
02.11.2018 15:12:32 Volvo C 30 1.6 D Gründau Kupplung
31.10.2018 13:08:03 Volvo C 70 Cabriolet T5 Summum Bechtheim Zahnriemen / Steuerkette
30.10.2018 01:11:05 Volvo V 70 Kombi 2.4 / 2.5 (103kW / 106kW) Halle (Saale) Sonstige
30.10.2018 00:57:19 Volvo V 70 Kombi 2.4 / 2.5 (103kW / 106kW) Halle (Saale) Zylinderkopfdichtung
29.10.2018 22:36:57 Volvo V 70 Kombi 2.4 / 2.5 (103kW / 106kW) Halle (Saale) Zahnriemen / Steuerkette
29.10.2018 21:36:36 Volvo V 70 Kombi 2.4 / 2.5 (103kW / 106kW) Halle (Saale) Zahnriemen / Steuerkette

Hier können Sie kostenlos Werkstattangebote einholen!

Wählen Sie Hersteller und Modell Ihres Fahrzeugs aus den folgenden Listen aus.

Geben Sie die Schlüsselnummern Ihres Fahrzeuges in das unten stehenden Felder ein.

Kfz-Brief Schlüsselnummern
Sie brauchen Hilfe?
Telefon: 06301 600-2999

oder schreiben Sie uns
E-Mail

Bitte haben Sie einen Moment Geduld...